Location: Kott?ru
(16.6209°N, 80.6208°E)
Time: 14:06:41
(UTC+00:00)

ARIANE 5 R/B - Pass Details

Date: 18 September 2020
Orbit: 634 x 38467 km, 6.9° (Epoch: 30 October)

Event Time Altitude Azimuth Distance (km) Brightness Sun altitude
Exits shadow 23:11:20 18° 205° (SSW) 1,617 4.4 -18.7°
Maximum altitude 23:12:04 19° 190° (S) 1,531 4.4 -18.5°
Drops below altitude 10° 23:14:50 10° 140° (SE) 2,054 5.7 -17.9°
Sets 23:17:57 0° 119° (ESE) 3,421 7.3 -17.1°
